Pine Bluffs Muni, Pine Bluffs, WY

4:40 PM MST on December 11, 2017 (GMT -0700)
Pine Bluffs Muni, Pine Bluffs

Weather History for K82V - March, 2014

Change the Weather History Date:

Sunday, March 16, 2014

  Actual Average (KCYS) Record (KCYS)
Temperature  
Mean Temperature 41 °F -  
Max Temperature 59 °F 47 °F 70 °F (2012)
Min Temperature 23 °F 22 °F -17 °F (1906)
Degree Days  
Heating Degree Days 24    
Moisture  
Dew Point 24 °F    
Average Humidity 62    
Maximum Humidity 100    
Minimum Humidity 21    
Precipitation  
Precipitation 0.00 in - - ()
Sea Level Pressure  
Sea Level Pressure 30.14 in    
Wind  
Wind Speed 7 mph (WNW)    
Max Wind Speed 30 mph    
Max Gust Speed 40 mph    
Visibility 10 miles    
Events      
Averages and records for this station are not official NWS values.
T = Trace of Precipitation, MM = Missing Value Source: NWS Daily Summary

Daily Weather History Graph

Daily Weather History Graph

Search for Another Location

Airport or City:

Trip Planner

Search our weather history database for the weather conditions in past years. The results will help you decide how hot, cold, wet, or windy it might be!

Date:

Astronomy

Mar. 16, 2014 Rise Set
Actual Time 7:06 AM MDT 7:04 PM MDT
Civil Twilight 6:39 AM MDT 7:31 PM MDT
Nautical Twilight 6:07 AM MDT 8:03 PM MDT
Astronomical Twilight 5:34 AM MDT 8:36 PM MDT
Moon 7:24 PM MDT (3/16) 6:51 AM MDT (3/16)
Length of Visible Light 12h 52m
Length of Day
11h 57m
Full, 100% of the Moon is Illuminated
Mar 16
Full
Mar 23
Last Quarter
Mar 30
New
Apr 7
First Quarter
Apr 15
Full

Hourly Weather History & Observations

Time (MDT) Temp. Windchill Dew Point Humidity Pressure Visibility Wind Dir Wind Speed Gust Speed Precip Events Conditions
12:15 AM 28.4 °F 24.6 °F 26.6 °F 93% 30.29 in 10.0 mi WNW 3.5 mph - N/A   Scattered Clouds
12:35 AM 28.4 °F 24.6 °F 26.6 °F 93% 30.30 in 10.0 mi WNW 3.5 mph - N/A   Clear
12:55 AM 26.6 °F - 24.8 °F 93% 30.30 in 10.0 mi Calm Calm - N/A   Clear
1:15 AM 26.6 °F - 24.8 °F 93% 30.30 in 10.0 mi Calm Calm - N/A   Clear
1:35 AM 28.4 °F - 26.6 °F 93% 30.30 in 10.0 mi Calm Calm - N/A   Clear
1:55 AM 26.6 °F - 24.8 °F 93% 30.29 in 10.0 mi Calm Calm - N/A   Clear
2:15 AM 26.6 °F - 23.0 °F 86% 30.29 in 10.0 mi Calm Calm - N/A   Clear
2:35 AM 23.0 °F 14.7 °F 21.2 °F 93% 30.29 in 10.0 mi West 6.9 mph - N/A   Clear
2:55 AM 23.0 °F 15.8 °F 23.0 °F 100% 30.29 in 10.0 mi West 5.8 mph - N/A   Clear
3:15 AM 23.0 °F 18.4 °F 21.2 °F 93% 30.28 in 10.0 mi West 3.5 mph - N/A   Clear
3:35 AM 24.8 °F 19.1 °F 23.0 °F 93% 30.28 in 10.0 mi West 4.6 mph - N/A   Clear
3:55 AM 23.0 °F - 21.2 °F 93% 30.27 in 10.0 mi Calm Calm - N/A   Clear
4:15 AM 23.0 °F 18.4 °F 21.2 °F 93% 30.26 in 10.0 mi West 3.5 mph - N/A   Clear
4:35 AM 23.0 °F - 23.0 °F 100% 30.26 in 10.0 mi Calm Calm - N/A   Clear
4:55 AM 24.8 °F 16.9 °F 23.0 °F 93% 30.25 in 10.0 mi SW 6.9 mph - N/A   Clear
5:15 AM 24.8 °F 19.1 °F 23.0 °F 93% 30.25 in 10.0 mi WSW 4.6 mph - N/A   Clear
5:35 AM 23.0 °F - 23.0 °F 100% 30.23 in 10.0 mi Calm Calm - N/A   Clear
6:15 AM 24.8 °F 16.9 °F 23.0 °F 93% 30.23 in 10.0 mi WSW 6.9 mph - N/A   Clear
6:35 AM 23.0 °F - 21.2 °F 93% 30.24 in 10.0 mi Calm Calm - N/A   Clear
6:55 AM 23.0 °F - 21.2 °F 93% 30.24 in 10.0 mi Calm Calm - N/A   Scattered Clouds
7:15 AM 23.0 °F 18.4 °F 21.2 °F 93% 30.25 in 10.0 mi SSW 3.5 mph - N/A   Scattered Clouds
7:35 AM 24.8 °F 19.1 °F 23.0 °F 93% 30.26 in 10.0 mi SW 4.6 mph - N/A   Mostly Cloudy
7:55 AM 26.6 °F 22.6 °F 26.6 °F 100% 30.25 in 10.0 mi SW 3.5 mph - N/A   Scattered Clouds
8:15 AM 30.2 °F - 28.4 °F 93% 30.24 in 10.0 mi Calm Calm - N/A   Clear
8:35 AM 32.0 °F - 28.4 °F 87% 30.25 in 10.0 mi Calm Calm - N/A   Mostly Cloudy
8:55 AM 32.0 °F 28.7 °F 30.2 °F 93% 30.23 in 10.0 mi SSE 3.5 mph - N/A   Scattered Clouds
9:15 AM 33.8 °F 29.6 °F 30.2 °F 87% 30.23 in 10.0 mi SSW 4.6 mph - N/A   Clear
9:35 AM 35.6 °F 30.7 °F 28.4 °F 75% 30.22 in 10.0 mi SW 5.8 mph - N/A   Clear
9:55 AM 37.4 °F - 28.4 °F 70% 30.23 in 10.0 mi Calm Calm - N/A   Clear
10:15 AM 41.0 °F 39.0 °F 26.6 °F 57% 30.23 in 10.0 mi West 3.5 mph - N/A   Clear
10:35 AM 44.6 °F 38.4 °F 23.0 °F 43% 30.22 in 10.0 mi NW 12.7 mph 21.9 mph N/A   Clear
10:55 AM 46.4 °F 40.7 °F 23.0 °F 40% 30.21 in 10.0 mi NW 12.7 mph - N/A   Clear
11:15 AM 48.2 °F - 21.2 °F 34% 30.19 in 10.0 mi WNW 16.1 mph 23.0 mph N/A   Clear
11:35 AM 50.0 °F - 21.2 °F 32% 30.18 in 10.0 mi NW 20.7 mph 24.2 mph N/A   Clear
11:55 AM 50.0 °F - 21.2 °F 32% 30.18 in 10.0 mi NW 19.6 mph 23.0 mph N/A   Clear
12:15 PM 51.8 °F - 21.2 °F 30% 30.16 in 10.0 mi NW 19.6 mph 28.8 mph N/A   Clear
12:55 PM 53.6 °F - 21.2 °F 28% 30.14 in 10.0 mi NW 19.6 mph 25.3 mph N/A   Clear
1:15 PM 53.6 °F - 21.2 °F 28% 30.12 in 10.0 mi NW 15.0 mph 25.3 mph N/A   Clear
1:35 PM 53.6 °F - 21.2 °F 28% 30.11 in 10.0 mi NW 20.7 mph 25.3 mph N/A   Clear
1:55 PM 55.4 °F - 21.2 °F 26% 30.10 in 10.0 mi NW 20.7 mph 26.5 mph N/A   Clear
2:15 PM 55.4 °F - 19.4 °F 25% 30.09 in 10.0 mi NW 18.4 mph 28.8 mph N/A   Clear
2:35 PM 57.2 °F - 19.4 °F 23% 30.08 in 10.0 mi NW 15.0 mph 25.3 mph N/A   Clear
2:55 PM 57.2 °F - 21.2 °F 25% 30.07 in 10.0 mi NW 19.6 mph 28.8 mph N/A   Clear
3:15 PM 57.2 °F - 21.2 °F 25% 30.06 in 10.0 mi NW 24.2 mph 29.9 mph N/A   Clear
3:35 PM 57.2 °F - 17.6 °F 21% 30.04 in 10.0 mi NW 23.0 mph 27.6 mph N/A   Clear
3:55 PM 57.2 °F - 19.4 °F 23% 30.03 in 10.0 mi NW 23.0 mph - N/A   Clear
4:15 PM 59.0 °F - 19.4 °F 22% 30.03 in 10.0 mi NW 21.9 mph 31.1 mph N/A   Clear
4:35 PM 57.2 °F - 21.2 °F 25% 30.02 in 10.0 mi NW 20.7 mph 28.8 mph N/A   Clear
4:55 PM 57.2 °F - 21.2 °F 25% 30.03 in 10.0 mi NW 23.0 mph 33.4 mph N/A   Clear
5:15 PM 57.2 °F - 21.2 °F 25% 30.02 in 10.0 mi NW 27.6 mph 38.0 mph N/A   Clear
5:35 PM 55.4 °F - 21.2 °F 26% 30.01 in 10.0 mi NW 28.8 mph 40.3 mph N/A   Clear
5:55 PM 55.4 °F - 23.0 °F 29% 30.00 in 10.0 mi NW 29.9 mph 33.4 mph N/A   Clear
6:15 PM 51.8 °F - 23.0 °F 33% 30.00 in 10.0 mi NW 25.3 mph 31.1 mph N/A   Clear
6:35 PM 51.8 °F - 24.8 °F 35% 30.01 in 10.0 mi NW 18.4 mph 28.8 mph N/A   Clear
6:55 PM 50.0 °F - 24.8 °F 37% 30.01 in 10.0 mi WNW 12.7 mph - N/A   Clear
7:15 PM 46.4 °F 41.1 °F 24.8 °F 43% 30.00 in 10.0 mi WNW 11.5 mph - N/A   Clear
7:35 PM 44.6 °F 38.4 °F 26.6 °F 49% 30.00 in 10.0 mi West 12.7 mph - N/A   Clear
7:55 PM 44.6 °F 38.1 °F 26.6 °F 49% 30.00 in 10.0 mi West 13.8 mph - N/A   Clear
8:15 PM 44.6 °F 38.4 °F 26.6 °F 49% 30.00 in 10.0 mi West 12.7 mph - N/A   Clear
8:35 PM 41.0 °F 34.7 °F 28.4 °F 61% 30.00 in 10.0 mi West 10.4 mph - N/A   Clear
8:55 PM 37.4 °F 32.8 °F 28.4 °F 70% 30.00 in 10.0 mi West 5.8 mph - N/A   Clear
9:15 PM 37.4 °F 32.8 °F 26.6 °F 65% 29.99 in 10.0 mi West 5.8 mph - N/A   Clear
9:35 PM 37.4 °F 34.9 °F 26.6 °F 65% 29.98 in 10.0 mi WSW 3.5 mph - N/A   Clear
9:55 PM 35.6 °F - 26.6 °F 70% 29.98 in 10.0 mi Calm Calm - N/A   Clear
10:15 PM 39.2 °F - 26.6 °F 61% 29.97 in 10.0 mi Calm Calm - N/A   Clear
10:35 PM 37.4 °F 34.9 °F 26.6 °F 65% 29.97 in 10.0 mi WSW 3.5 mph - N/A   Clear
10:55 PM 39.2 °F 34.2 °F 26.6 °F 61% 29.96 in 10.0 mi WSW 6.9 mph - N/A   Clear
11:15 PM 37.4 °F - 26.6 °F 65% 29.95 in 10.0 mi Calm Calm - N/A   Clear
11:35 PM 37.4 °F 34.9 °F 26.6 °F 65% 29.95 in 10.0 mi West 3.5 mph - N/A   Clear
11:55 PM 35.6 °F 31.7 °F 28.4 °F 75% 29.94 in 10.0 mi West 4.6 mph - N/A   Clear